X  Close Clear throughout the day.
Conditions Temperature Feels Precipitation Wind Wind Direction UV index Pressure
18:00 partly-cloudy-day Partly Cloudy 16° - 12-20 mph ESE ESE uv-1 1024,7
19:00 partly-cloudy-day Partly Cloudy 15° - 11-18 mph ESE ESE - 1025,0
20:00 partly-cloudy-day Partly Cloudy 13° - 10-14 mph ESE ESE - 1025,2
21:00 partly-cloudy-night Partly Cloudy 11° - 10-16 mph East Easterly - 1025,6
22:00 partly-cloudy-night Partly Cloudy 10° - 10-21 mph East Easterly - 1025,6
23:00 partly-cloudy-night Mostly Cloudy 9° - 11-23 mph East Easterly - 1025,6
00:00 partly-cloudy-night Mostly Cloudy 8° - 11-19 mph East Easterly - 1025,7
01:00 partly-cloudy-night Mostly Cloudy 7° - 10-12 mph East Easterly - 1026,7
02:00 partly-cloudy-night Mostly Cloudy 7° - 10-12 mph East Easterly - 1026,8
03:00 clear-night Clear 6° 3° - 10-12 mph ENE ENE - 1026,8
04:00 clear-night Clear 6° 2° - 10-13 mph ENE ENE - 1027,0
05:00 clear-night Clear 5° 2° - 10-13 mph ENE ENE - 1026,8
06:00 clear-night Clear 5° 1° - 10-13 mph ENE ENE - 1027,0
07:00 clear-day Clear 5° 2° - 11-14 mph ENE ENE - 1027,2
08:00 clear-day Clear 6° 3° - 12-18 mph ENE ENE uv-1 1027,5
09:00 clear-day Clear 8° 5° - 13-21 mph ENE ENE uv-2 1027,4
10:00 clear-day Clear 11° - 14-20 mph ENE ENE uv-3 1027,4
11:00 clear-day Clear 13° - 15-20 mph East Easterly uv-4 1027,0
12:00 clear-day Clear 14° - 15-20 mph East Easterly uv-5 1026,7
13:00 clear-day Clear 15° - 16-21 mph East Easterly uv-6 1025,7
14:00 clear-day Clear 17° - 16-21 mph East Easterly uv-6 1025,5
15:00 clear-day Clear 17° - 16-21 mph East Easterly uv-5 1025,3
16:00 partly-cloudy-day Partly Cloudy 17° - 15-22 mph East Easterly uv-3 1025,1
17:00 partly-cloudy-day Partly Cloudy 17° - 15-21 mph East Easterly uv-2 1025,1
18:00 clear-day Clear 16° - 15-22 mph East Easterly uv-1 1025,2
19:00 clear-day Clear 15° 0.11 mm 2% 15-23 mph East Easterly - 1024,8
20:00 partly-cloudy-day Partly Cloudy 14° 0.1 mm 1% 13-22 mph East Easterly - 1025,3
21:00 partly-cloudy-night Partly Cloudy 12° 0.05 mm 1% 12-23 mph ENE ENE - 1026,0
22:00 partly-cloudy-night Partly Cloudy 11° 0.03 mm 1% 12-24 mph ENE ENE - 1026,4
23:00 partly-cloudy-night Partly Cloudy 10° 0.02 mm 1% 12-24 mph ENE ENE - 1026,7
00:00 partly-cloudy-night Partly Cloudy 9° - 12-24 mph ENE ENE - 1027,1
01:00 partly-cloudy-night Partly Cloudy 8° 5° - 12-23 mph ENE ENE - 1028,2
02:00 clear-night Clear 7° 4° - 12-24 mph ENE ENE - 1028,2
03:00 clear-night Clear 6° 3° - 13-24 mph ENE ENE - 1028,3
04:00 clear-night Clear 5° 1° - 13-25 mph ENE ENE - 1028,3
05:00 clear-night Clear 5° 0° - 14-26 mph ENE ENE - 1028,3
06:00 clear-night Clear 4° -0° - 14-27 mph ENE ENE - 1028,4
07:00 clear-day Clear 4° -1° - 14-29 mph ENE ENE - 1029,0
08:00 partly-cloudy-day Partly Cloudy 5° 0° 0.01 mm 1% 15-28 mph ENE ENE uv-1 1029,3
09:00 partly-cloudy-day Partly Cloudy 6° 2° - 17-25 mph ENE ENE uv-2 1029,3
10:00 partly-cloudy-day Partly Cloudy 8° 4° - 17-23 mph ENE ENE uv-3 1029,1
11:00 clear-day Clear 10° 7° - 17-22 mph ENE ENE uv-4 1028,6
12:00 partly-cloudy-day Partly Cloudy 11° - 17-21 mph ENE ENE uv-5 1028,2
13:00 clear-day Clear 13° - 17-22 mph ENE ENE uv-5 1027,7
14:00 clear-day Clear 14° - 16-21 mph ENE ENE uv-5 1027,1
15:00 clear-day Clear 15° - 16-21 mph ENE ENE uv-4 1026,3
16:00 clear-day Clear 16° - 15-20 mph ENE ENE uv-3 1026,1
17:00 clear-day Clear 16° - 16-21 mph ENE ENE uv-2 1025,7
18:00 clear-day Clear 15° - 16-23 mph ENE ENE uv-1 1025,2